{"data":{"norad_id":64768,"intl_designator":"2025-147P","name":"STARLINK-34609","alt_names":[],"object_type":"PAYLOAD","status":"ACTIVE","operator":null,"country":"US","launch_date":"2025-07-08","launch_site_code":"AFETR","launch_vehicle":null,"mission":null,"orbit_class":"UNKNOWN","rcs_meters":null,"size_class":null,"mass_kg":null,"dimensions":null,"purposes":["comms"],"wikipedia_slug":null,"has_3d_model":false,"image_url":null,"decayed_at":null,"tle_current":{"epoch":"2026-09-20T13:25:40.807776Z","epoch_age_seconds":122504,"freshness":"FRESH","line1":"1 64768U 25147P   26263.55950009  .00026177  00000+0  78290-3 0  9993","line2":"2 64768  53.1591  45.0764 0001230 115.6636 244.4494 15.34410708 68768","mean_motion":15.34410708,"eccentricity":0.000123,"inclination_deg":53.1591,"raan_deg":45.0764,"arg_perigee_deg":115.6636,"mean_anomaly_deg":244.4494,"bstar":0.0007829,"rev_number":6876,"period_min":93.847103157729,"perigee_km":461.82999452466,"apogee_km":463.5128333945,"semimajor_km":6840.8084139596,"source":"CELESTRAK","updated_at":"2026-09-21T09:00:35.438802Z"}}}